#timestamp,LO_Frequency,Hit,StdDev 
1456624815.2,286047008.1,P
1456624835.0,286047013.2,P
1456624835.9,286047013.2,N
1456624855.7,286047012.4,N
1456624875.6,286047009.1,N
1456624895.4,286047008.7,N
1456624915.2,286047008.9,N
1456624935.1,286047007.9,N
1456624936.0,286047007.9,N
1456624955.8,286047009.6,N
1456624975.6,286047009.2,N
1456624995.5,286047008.6,N
1456625015.3,286047008.4,N
1456625035.1,286047006.5,N
1456625055.9,286047010.1,Y
1456625075.7,286047002.5,P
1456625095.5,286047001.7,N
1456625115.4,286047000.3,N
1456625135.2,286047002.7,N
1456625155.0,286046998.9,N
1456625155.9,286046998.9,N
1456625175.8,286046997.8,N
1456625195.6,286046999.6,N
1456625215.4,286046998.1,N
1456625235.2,286047002.4,N
1456625255.1,286047000.4,N
1456625256.0,286047000.4,N
1456625275.8,286046998.4,N
1456625295.6,286046996.9,N
1456625315.5,286046998.1,N
1456625335.3,286046999.7,N
1456625355.1,286046999.0,N
1456625375.9,286047002.0,N
1456625395.7,286047003.5,N
1456625415.5,286047001.7,N
1456625435.4,286047001.2,N
1456625455.2,286047001.0,N
1456625475.0,286046998.7,N
1456625475.9,286046998.7,N
1456625495.8,286046998.8,N
1456625515.6,286046998.6,N
1456625535.4,286046997.3,N
1456625555.3,286046995.0,N
1456625575.1,286046996.1,N
1456625576.0,286046996.1,N
1456625595.8,286046992.5,Y
1456625615.7,286046994.4,P
1456625635.5,286046994.7,N
1456625655.3,286046990.3,P
1456625675.2,286046988.9,Y
1456625695.9,286046993.4,P
1456625715.7,286046992.2,P
1456625735.6,286046990.9,P
1456625755.4,286046991.3,Y
1456625775.2,286046995.5,P
1456625795.1,286046993.7,P
1456625796.0,286046993.7,P
1456625815.8,286046995.3,Y
1456625835.6,286047005.6,P
1456625855.5,286047003.5,N
1456625875.3,286047007.6,N
1456625895.1,286047007.4,N
1456625915.9,286047006.9,N
1456625935.7,286047008.6,N
1456625955.5,286047007.7,N
1456625975.3,286047012.8,N
1456625995.2,286047013.4,N
1456626015.0,286047015.5,Y
1456626015.9,286047015.5,P
1456626035.8,286047010.1,N
1456626055.6,286047011.9,P
1456626075.4,286047009.9,Y
1456626095.3,286047000.0,P
1456626115.1,286047003.9,N
1456626116.0,286047003.9,N
1456626135.8,286047002.0,N
1456626155.6,286047000.7,N
1456626175.5,286047000.5,N
1456626195.3,286046998.6,N
1456626215.1,286046999.1,N
1456626235.9,286046998.8,N
1456626255.7,286046996.9,N
1456626275.5,286047004.0,N
1456626295.4,286047003.4,N
1456626315.2,286047001.8,N
1456626335.0,286047002.7,N
1456626335.9,286047002.7,N
1456626355.8,286047000.9,N
1456626375.6,286047002.3,N
1456626395.4,286047001.7,N
1456626415.3,286047001.9,N
1456626435.1,286046998.1,N
1456626436.0,286046998.1,N
1456626455.8,286047002.5,N
1456626475.7,286047001.6,N
1456626495.5,286047002.1,N
1456626515.3,286047003.2,N
1456626535.1,286047002.9,N
1456626555.9,286047001.4,N
1456626575.7,286047002.0,N
1456626595.5,286047002.5,N
1456626615.4,286046998.7,N
1456626635.2,286047000.3,N
1456626655.0,286047003.0,N
1456626655.9,286047003.0,N
1456626675.8,286047002.0,N
1456626695.6,286047001.0,N
1456626715.4,286046999.1,N
1456626735.3,286046997.8,N
1456626755.1,286046998.4,N
1456626756.0,286046998.4,N
1456626775.8,286047001.1,N
1456626795.7,286047001.0,N
1456626815.5,286047001.6,N
1456626835.3,286046998.2,N
1456626855.1,286046997.2,N
1456626875.9,286047000.7,N
1456626895.7,286047000.4,N
1456626915.5,286047002.6,N
1456626935.4,286047002.4,N
1456626955.2,286046998.8,N
1456626975.0,286047000.7,N
1456626975.9,286047000.7,N
1456626995.8,286046998.8,N
1456627015.6,286046997.0,N
1456627035.4,286046999.4,N
1456627055.3,286046998.7,N
1456627075.1,286046998.5,N
1456627076.0,286046998.5,N
1456627095.8,286047000.3,N
1456627115.7,286047000.6,N
1456627135.5,286047002.8,N
1456627155.3,286047003.0,N
1456627175.2,286047004.8,N
1456627195.9,286047003.8,N
1456627215.7,286047002.8,N
1456627235.5,286047003.7,N
1456627255.4,286047001.4,N
1456627275.2,286047002.1,N
1456627295.0,286046999.7,N
1456627295.9,286046999.7,N
1456627315.8,286047004.3,N
1456627335.6,286047003.8,N
1456627355.4,286047003.1,N
1456627375.3,286047003.2,N
1456627395.1,286047001.9,N
1456627415.8,286047000.3,N
1456627435.7,286047003.7,N
1456627455.5,286047004.4,N
1456627475.3,286047001.3,N
1456627495.2,286047001.9,N
1456627515.9,286047001.7,N
1456627535.7,286047000.9,N
1456627555.6,286047000.7,N
1456627575.4,286047004.0,N
1456627595.2,286047003.1,N
1456627615.0,286047005.0,N
1456627616.0,286047005.0,N
1456627635.8,286047001.3,N
1456627655.6,286047001.9,N
1456627675.4,286047001.7,N
1456627695.3,286047002.3,N
1456627715.1,286046997.8,N
1456627735.8,286046999.5,N
1456627755.7,286046996.0,N
1456627775.5,286046995.4,N
1456627795.3,286046993.9,N
1456627815.2,286046995.5,N
1456627835.9,286046993.8,N
1456627855.7,286046996.4,N
1456627875.6,286046997.6,N
1456627895.4,286046997.8,N
1456627915.2,286046999.0,N
1456627935.1,286046997.9,N
1456627936.0,286046997.9,N
1456627955.8,286046993.4,N
1456627975.6,286046993.7,N
1456627995.5,286046994.6,N
1456628015.3,286046992.6,N
1456628035.1,286046993.1,N
1456628055.8,286046991.1,N
1456628075.7,286046991.4,N
1456628095.5,286046992.5,N
1456628115.3,286046994.2,N
1456628135.2,286046990.5,N
1456628155.9,286046991.6,N
1456628175.7,286046993.1,N
1456628195.6,286046997.0,N
1456628215.4,286046997.0,N
1456628235.2,286047000.5,N
1456628255.1,286046998.6,N
1456628256.0,286046998.6,N
1456628275.8,286047000.8,N
1456628295.6,286046998.2,N
1456628315.5,286046998.7,N
1456628335.3,286047001.1,N
1456628355.1,286047000.5,N
1456628375.8,286046999.7,N
1456628395.7,286047002.6,N
